WetterOnline ( https://www.wetteronline.de )

Wetter aktuell Vieste

Aktuelles Wetter: Amendola (60m)

6-stündlich | Neueste Meldungen
Ortszeit Temperatur Wetter
Di, 27.02. 13:00 17.5° C fast wolkenlos
Di, 27.02. 7:00 8.0° C leicht bewölkt
Di, 27.02. 1:00 10.1° C leicht bewölkt
Mo, 26.02. 19:00 11.4° C wolkig
Mo, 26.02. 13:00 16.0° C leicht bewölkt
Mo, 26.02. 7:00 7.5° C leichter Regen
Mo, 26.02. 1:00 8.1° C wolkig
So, 25.02. 19:00 9.8° C bedeckt
Ortszeit Temperatur Wetter
Di, 27.02. 17:00 16.9° C leicht bewölkt
Di, 27.02. 16:00 17.3° C fast wolkenlos
Di, 27.02. 15:00 18.1° C fast wolkenlos
Di, 27.02. 13:00 17.5° C fast wolkenlos
Ortszeit Relative Feuchte Sichtweite
Di, 27.02. 13:00 64% 10 km
Di, 27.02. 7:00 93% 15 km
Di, 27.02. 1:00 92% 15 km
Mo, 26.02. 19:00 89% 25 km
Mo, 26.02. 13:00 67% 25 km
Mo, 26.02. 7:00 95% 5.0 km
Mo, 26.02. 1:00 94% 15 km
So, 25.02. 19:00 93% 10 km
Ortszeit Relative Feuchte Sichtweite
Di, 27.02. 17:00 65% 10 km
Di, 27.02. 16:00 69% 10 km
Di, 27.02. 15:00 64% 10 km
Di, 27.02. 13:00 64% 10 km
Ortszeit Niederschlagsmenge Niederschlagsart
Di, 27.02. 13:00 0.0 l/m2 in 6 Std. -
Di, 27.02. 7:00 0.0 l/m2 in 12 Std. -
Di, 27.02. 1:00 0.0 l/m2 in 6 Std. -
Mo, 26.02. 19:00 0.2 l/m2 in 12 Std. -
Mo, 26.02. 13:00 0.2 l/m2 in 6 Std. Regen
Mo, 26.02. 7:00 0.8 l/m2 in 12 Std. Regen
Mo, 26.02. 1:00 0.0 l/m2 in 6 Std. Nebel
So, 25.02. 19:00 4 l/m2 in 12 Std. Regen
Ortszeit Niederschlagsmenge Niederschlagsart
Di, 27.02. 17:00 keine Meldung -
Di, 27.02. 16:00 keine Meldung -
Di, 27.02. 15:00 keine Meldung -
Di, 27.02. 13:00 keine Meldung -
Ortszeit Stärke Spitze Richtung
km/h Bft. km/h Grad Sektor
Di, 27.02. 13:00 20 4 - 80° O
Di, 27.02. 7:00 11 2 - 90° O
Di, 27.02. 1:00 6 1 - 90° O
Mo, 26.02. 19:00 7 2 - 60° NO
Mo, 26.02. 13:00 7 2 - 110° O
Mo, 26.02. 7:00 11 2 - 300° NW
Mo, 26.02. 1:00 6 1 - 270° W
So, 25.02. 19:00 6 1 - 250° W
Ortszeit Stärke Spitze Richtung
km/h Bft. km/h Grad Sektor
Di, 27.02. 17:00 22 4 - 130° SO
Di, 27.02. 16:00 20 4 - 70° O
Di, 27.02. 15:00 28 4 - 80° O
Di, 27.02. 13:00 20 4 - 80° O
Ortszeit Untergrenze Bedeckung Gattung
total tief tief mittel hoch
Di, 27.02. 13:00 900 m 1/8 1/8 Cu - -
Di, 27.02. 7:00 4200 m 5/8 1/8 - Ac Cs
Di, 27.02. 1:00 2100 m 4/8 4/8 - As -
Mo, 26.02. 19:00 900 m 7/8 1/8 Cu As Ci
Mo, 26.02. 13:00 900 m 4/8 1/8 Cu - Ci
Mo, 26.02. 7:00 210 m 7/8 7/8 Sc - -
Mo, 26.02. 1:00 1800 m 7/8 5/8 - As -
So, 25.02. 19:00 450 m 8/8 8/8 Sc - -
Ortszeit Bedeckungsgrad in Achtel und Wolkenuntergrenze
Di, 27.02. 17:00 1(900m)
Di, 27.02. 16:00 1(900m)
Di, 27.02. 15:00 1(900m)
Di, 27.02. 13:00 1(900m)
Ortszeit Luftdruck NN (hPa) Tendenz (hPa in 3 Std.)
Di, 27.02. 13:00 1009 - 1,0
Di, 27.02. 7:00 1010 + 0,1
Di, 27.02. 1:00 1010 0,0
Mo, 26.02. 19:00 1009 + 1,2
Mo, 26.02. 13:00 1008 - 1,2
Mo, 26.02. 7:00 1009 + 0,1
Mo, 26.02. 1:00 1009 - 0,3
So, 25.02. 19:00 1010 + 0,6
Ortszeit Luftdruck NN (hPa) Tendenz (hPa in 3 Std.)
Di, 27.02. 17:00 1009 + 0,2
Di, 27.02. 16:00 1008 - 1,3
Di, 27.02. 15:00 1008 - 2,0
Di, 27.02. 13:00 1009 - 1,0
Ortszeit Schneehöhe (cm)
Di, 27.02. 13:00 -
Di, 27.02. 7:00 -
Di, 27.02. 1:00 -
Mo, 26.02. 19:00 -
Mo, 26.02. 13:00 -
Mo, 26.02. 7:00 -
Mo, 26.02. 1:00 -
So, 25.02. 19:00 -
Ortszeit Schneehöhe (cm)
Di, 27.02. 17:00 -
Di, 27.02. 16:00 -
Di, 27.02. 15:00 -
Di, 27.02. 13:00 -
Link zu dieser Seite / Seite empfehlen

Das Wetter in ...